Year,Month,Day,Hour,Minute,Value (Times are PST for barometer in hPa)
2018,11,22,00,00,1006.37
2018,11,22,00,01,1006.40
2018,11,22,00,02,1006.37
2018,11,22,00,03,1006.37
2018,11,22,00,04,1006.44
2018,11,22,00,05,1006.40
2018,11,22,00,06,1006.40
2018,11,22,00,07,1006.33
2018,11,22,00,08,1006.33
2018,11,22,00,09,1006.37
2018,11,22,00,10,1006.33
2018,11,22,00,11,1006.37
2018,11,22,00,12,1006.33
2018,11,22,00,13,1006.30
2018,11,22,00,14,1006.30
2018,11,22,00,15,1006.40
2018,11,22,00,16,1006.37
2018,11,22,00,17,1006.33
2018,11,22,00,18,1006.30
2018,11,22,00,19,1006.40
2018,11,22,00,20,1006.33
2018,11,22,00,21,1006.33
2018,11,22,00,22,1006.33
2018,11,22,00,23,1006.30
2018,11,22,00,24,1006.27
2018,11,22,00,25,1006.23
2018,11,22,00,26,1006.33
2018,11,22,00,27,1006.27
2018,11,22,00,28,1006.27
2018,11,22,00,29,1006.16
2018,11,22,00,30,1006.20
2018,11,22,00,31,1006.27
2018,11,22,00,32,1006.23
2018,11,22,00,33,1006.20
2018,11,22,00,34,1006.20
2018,11,22,00,35,1006.16
2018,11,22,00,36,1006.16
2018,11,22,00,37,1006.20
2018,11,22,00,38,1006.16
2018,11,22,00,39,1006.23
2018,11,22,00,40,1006.13
2018,11,22,00,41,1006.23
2018,11,22,00,42,1006.13
2018,11,22,00,43,1006.13
2018,11,22,00,44,1006.16
2018,11,22,00,45,1006.10
2018,11,22,00,46,1006.06
2018,11,22,00,47,1006.10
2018,11,22,00,48,1006.03
2018,11,22,00,49,1006.06
2018,11,22,00,50,1006.10
2018,11,22,00,51,1005.99
2018,11,22,00,52,1005.93
2018,11,22,00,53,1005.96
2018,11,22,00,54,1005.99
2018,11,22,00,55,1005.93
2018,11,22,00,56,1005.99
2018,11,22,00,57,1005.99
2018,11,22,00,58,1005.96
2018,11,22,00,59,1005.99
2018,11,22,01,00,1005.99
2018,11,22,01,01,1005.96
2018,11,22,01,02,1005.96
2018,11,22,01,03,1005.89
2018,11,22,01,04,1005.93
2018,11,22,01,05,1005.86
2018,11,22,01,06,1005.93
2018,11,22,01,07,1005.83
2018,11,22,01,08,1005.86
2018,11,22,01,09,1005.83
2018,11,22,01,10,1005.79
2018,11,22,01,11,1005.83
2018,11,22,01,12,1005.83
2018,11,22,01,13,1005.86
2018,11,22,01,14,1005.79
2018,11,22,01,15,1005.72
2018,11,22,01,16,1005.76
2018,11,22,01,17,1005.79
2018,11,22,01,18,1005.72
2018,11,22,01,19,1005.66
2018,11,22,01,20,1005.72
2018,11,22,01,21,1005.69
2018,11,22,01,22,1005.72
2018,11,22,01,23,1005.66
2018,11,22,01,24,1005.66
2018,11,22,01,25,1005.59
2018,11,22,01,26,1005.66
2018,11,22,01,27,1005.66
2018,11,22,01,28,1005.62
2018,11,22,01,29,1005.62
2018,11,22,01,30,1005.62
2018,11,22,01,31,1005.59
2018,11,22,01,32,1005.49
2018,11,22,01,33,1005.49
2018,11,22,01,34,1005.55
2018,11,22,01,35,1005.52
2018,11,22,01,36,1005.59
2018,11,22,01,37,1005.42
2018,11,22,01,38,1005.55
2018,11,22,01,39,1005.59
2018,11,22,01,40,1005.66
2018,11,22,01,41,1005.55
2018,11,22,01,42,1005.55
2018,11,22,01,43,1005.55
2018,11,22,01,44,1005.55
2018,11,22,01,45,1005.62
2018,11,22,01,46,1005.59
2018,11,22,01,47,1005.55
2018,11,22,01,48,1005.52
2018,11,22,01,49,1005.49
2018,11,22,01,50,1005.59
2018,11,22,01,51,1005.59
2018,11,22,01,52,1005.49
2018,11,22,01,53,1005.55
2018,11,22,01,54,1005.45
2018,11,22,01,55,1005.45
2018,11,22,01,56,1005.42
2018,11,22,01,57,1005.45
2018,11,22,01,58,1005.49
2018,11,22,01,59,1005.45
2018,11,22,02,00,1005.49
2018,11,22,02,01,1005.45
2018,11,22,02,02,1005.45
2018,11,22,02,03,1005.45
2018,11,22,02,04,1005.52
2018,11,22,02,05,1005.45
2018,11,22,02,06,1005.42
2018,11,22,02,07,1005.42
2018,11,22,02,08,1005.42
2018,11,22,02,09,1005.39
2018,11,22,02,10,1005.45
2018,11,22,02,11,1005.49
2018,11,22,02,12,1005.49
2018,11,22,02,13,1005.42
2018,11,22,02,14,1005.45
2018,11,22,02,15,1005.49
2018,11,22,02,16,1005.45
2018,11,22,02,17,1005.49
2018,11,22,02,18,1005.52
2018,11,22,02,19,1005.39
2018,11,22,02,20,1005.42
2018,11,22,02,21,1005.49
2018,11,22,02,22,1005.52
2018,11,22,02,23,1005.42
2018,11,22,02,24,1005.39
2018,11,22,02,25,1005.42
2018,11,22,02,26,1005.42
2018,11,22,02,27,1005.39
2018,11,22,02,28,1005.39
2018,11,22,02,29,1005.39
2018,11,22,02,30,1005.49
2018,11,22,02,31,1005.49
2018,11,22,02,32,1005.49
2018,11,22,02,33,1005.55
2018,11,22,02,34,1005.52
2018,11,22,02,35,1005.52
2018,11,22,02,36,1005.55
2018,11,22,02,37,1005.45
2018,11,22,02,38,1005.49
2018,11,22,02,39,1005.45
2018,11,22,02,40,1005.45
2018,11,22,02,41,1005.42
2018,11,22,02,42,1005.45
2018,11,22,02,43,1005.35
2018,11,22,02,44,1005.52
2018,11,22,02,45,1005.49
2018,11,22,02,46,1005.49
2018,11,22,02,47,1005.42
2018,11,22,02,48,1005.45
2018,11,22,02,49,1005.45
2018,11,22,02,50,1005.42
2018,11,22,02,51,1005.42
2018,11,22,02,52,1005.35
2018,11,22,02,53,1005.49
2018,11,22,02,54,1005.42
2018,11,22,02,55,1005.39
2018,11,22,02,56,1005.35
2018,11,22,02,57,1005.35
2018,11,22,02,58,1005.39
2018,11,22,02,59,1005.39
2018,11,22,03,00,1005.39
2018,11,22,03,01,1005.39
2018,11,22,03,02,1005.32
2018,11,22,03,03,1005.39
2018,11,22,03,04,1005.32
2018,11,22,03,05,1005.28
2018,11,22,03,06,1005.25
2018,11,22,03,07,1005.22
2018,11,22,03,08,1005.25
2018,11,22,03,09,1005.28
2018,11,22,03,10,1005.28
2018,11,22,03,11,1005.22
2018,11,22,03,12,1005.35
2018,11,22,03,13,1005.28
2018,11,22,03,14,1005.25
2018,11,22,03,15,1005.25
2018,11,22,03,16,1005.18
2018,11,22,03,17,1005.25
2018,11,22,03,18,1005.28
2018,11,22,03,19,1005.32
2018,11,22,03,20,1005.32
2018,11,22,03,21,1005.32
2018,11,22,03,22,1005.32
2018,11,22,03,23,1005.25
2018,11,22,03,24,1005.25
2018,11,22,03,25,1005.25
2018,11,22,03,26,1005.22
2018,11,22,03,27,1005.28
2018,11,22,03,28,1005.25
2018,11,22,03,29,1005.18
2018,11,22,03,30,1005.25
2018,11,22,03,31,1005.22
2018,11,22,03,32,1005.18
2018,11,22,03,33,1005.22
2018,11,22,03,34,1005.11
2018,11,22,03,35,1005.22
2018,11,22,03,36,1005.22
2018,11,22,03,37,1005.11
2018,11,22,03,38,1005.18
2018,11,22,03,39,1005.18
2018,11,22,03,40,1005.22
2018,11,22,03,41,1005.25
2018,11,22,03,42,1005.11
2018,11,22,03,43,1005.18
2018,11,22,03,44,1005.25
2018,11,22,03,45,1005.22
2018,11,22,03,46,1005.18
2018,11,22,03,47,1005.22
2018,11,22,03,48,1005.25
2018,11,22,03,49,1005.22
2018,11,22,03,50,1005.15
2018,11,22,03,51,1005.15
2018,11,22,03,52,1005.15
2018,11,22,03,53,1005.11
2018,11,22,03,54,1005.18
2018,11,22,03,55,1005.22
2018,11,22,03,56,1005.28
2018,11,22,03,57,1005.22
2018,11,22,03,58,1005.22
2018,11,22,03,59,1005.11
2018,11,22,04,00,1005.18
2018,11,22,04,01,1005.22
2018,11,22,04,02,1005.28
2018,11,22,04,03,1005.18
2018,11,22,04,04,1005.15
2018,11,22,04,05,1005.18
2018,11,22,04,06,1005.18
2018,11,22,04,07,1005.11
2018,11,22,04,08,1005.15
2018,11,22,04,09,1005.15
2018,11,22,04,10,1005.11
2018,11,22,04,11,1005.15
2018,11,22,04,12,1005.11
2018,11,22,04,13,1005.15
2018,11,22,04,14,1005.11
2018,11,22,04,15,1005.11
2018,11,22,04,16,1005.15
2018,11,22,04,17,1005.15
2018,11,22,04,18,1005.15
2018,11,22,04,19,1005.15
2018,11,22,04,20,1005.18
2018,11,22,04,21,1005.18
2018,11,22,04,22,1005.22
2018,11,22,04,23,1005.25
2018,11,22,04,24,1005.18
2018,11,22,04,25,1005.15
2018,11,22,04,26,1005.22
2018,11,22,04,27,1005.28
2018,11,22,04,28,1005.22
2018,11,22,04,29,1005.25
2018,11,22,04,30,1005.18
2018,11,22,04,31,1005.22
2018,11,22,04,32,1005.22
2018,11,22,04,33,1005.25
2018,11,22,04,34,1005.32
2018,11,22,04,35,1005.22
2018,11,22,04,36,1005.22
2018,11,22,04,37,1005.18
2018,11,22,04,38,1005.11
2018,11,22,04,39,1005.22
2018,11,22,04,40,1005.22
2018,11,22,04,41,1005.22
2018,11,22,04,42,1005.32
2018,11,22,04,43,1005.25
2018,11,22,04,44,1005.15
2018,11,22,04,45,1005.08
2018,11,22,04,46,1005.11
2018,11,22,04,47,1005.18
2018,11,22,04,48,1005.11
2018,11,22,04,49,1005.11
2018,11,22,04,50,1005.11
2018,11,22,04,51,1005.01
2018,11,22,04,52,1005.05
2018,11,22,04,53,1005.11
2018,11,22,04,54,1005.08
2018,11,22,04,55,1005.11
2018,11,22,04,56,1005.18
2018,11,22,04,57,1005.11
2018,11,22,04,58,1005.15
2018,11,22,04,59,1005.08
2018,11,22,05,00,1005.11
2018,11,22,05,01,1005.05
2018,11,22,05,02,1005.08
2018,11,22,05,03,1005.05
2018,11,22,05,04,1005.08
2018,11,22,05,05,1005.11
2018,11,22,05,06,1005.08
2018,11,22,05,07,1005.05
2018,11,22,05,08,1005.11
2018,11,22,05,09,1005.11
2018,11,22,05,10,1005.11
2018,11,22,05,11,1005.08
2018,11,22,05,12,1005.15
2018,11,22,05,13,1005.11
2018,11,22,05,14,1005.11
2018,11,22,05,15,1005.15
2018,11,22,05,16,1005.18
2018,11,22,05,17,1005.05
2018,11,22,05,18,1005.15
2018,11,22,05,19,1005.22
2018,11,22,05,20,1005.11
2018,11,22,05,21,1005.15
2018,11,22,05,22,1005.15
2018,11,22,05,23,1005.18
2018,11,22,05,24,1005.15
2018,11,22,05,25,1005.15
2018,11,22,05,26,1005.15
2018,11,22,05,27,1005.11
2018,11,22,05,28,1005.08
2018,11,22,05,29,1005.11
2018,11,22,05,30,1005.18
2018,11,22,05,31,1005.08
2018,11,22,05,32,1005.18
2018,11,22,05,33,1005.22
2018,11,22,05,34,1005.22
2018,11,22,05,35,1005.08
2018,11,22,05,36,1005.11
2018,11,22,05,37,1005.11
2018,11,22,05,38,1005.18
2018,11,22,05,39,1005.15
2018,11,22,05,40,1005.18
2018,11,22,05,41,1005.18
2018,11,22,05,42,1005.18
2018,11,22,05,43,1005.22
2018,11,22,05,44,1005.18
2018,11,22,05,45,1005.15
2018,11,22,05,46,1005.22
2018,11,22,05,47,1005.22
2018,11,22,05,48,1005.15
2018,11,22,05,49,1005.18
2018,11,22,05,50,1005.22
2018,11,22,05,51,1005.18
2018,11,22,05,52,1005.25
2018,11,22,05,53,1005.28
2018,11,22,05,54,1005.25
2018,11,22,05,55,1005.28
2018,11,22,05,56,1005.39
2018,11,22,05,57,1005.32
2018,11,22,05,58,1005.35
2018,11,22,05,59,1005.28
2018,11,22,06,00,1005.32
2018,11,22,06,01,1005.32
2018,11,22,06,02,1005.25
2018,11,22,06,03,1005.32
2018,11,22,06,04,1005.32
2018,11,22,06,05,1005.35
2018,11,22,06,06,1005.42
2018,11,22,06,07,1005.39
2018,11,22,06,08,1005.32
2018,11,22,06,09,1005.35
2018,11,22,06,10,1005.35
2018,11,22,06,11,1005.28
2018,11,22,06,12,1005.28
2018,11,22,06,13,1005.32
2018,11,22,06,14,1005.35
2018,11,22,06,15,1005.25
2018,11,22,06,16,1005.28
2018,11,22,06,17,1005.32
2018,11,22,06,18,1005.35
2018,11,22,06,19,1005.35
2018,11,22,06,20,1005.32
2018,11,22,06,21,1005.35
2018,11,22,06,22,1005.32
2018,11,22,06,23,1005.39
2018,11,22,06,24,1005.35
2018,11,22,06,25,1005.32
2018,11,22,06,26,1005.39
2018,11,22,06,27,1005.35
2018,11,22,06,28,1005.42
2018,11,22,06,29,1005.32
2018,11,22,06,30,1005.35
2018,11,22,06,31,1005.49
2018,11,22,06,32,1005.35
2018,11,22,06,33,1005.45
2018,11,22,06,34,1005.39
2018,11,22,06,35,1005.39
2018,11,22,06,36,1005.45
2018,11,22,06,37,1005.39
2018,11,22,06,38,1005.39
2018,11,22,06,39,1005.35
2018,11,22,06,40,1005.39
2018,11,22,06,41,1005.45
2018,11,22,06,42,1005.45
2018,11,22,06,43,1005.42
2018,11,22,06,44,1005.42
2018,11,22,06,45,1005.42
2018,11,22,06,46,1005.45
2018,11,22,06,47,1005.49
2018,11,22,06,48,1005.45
2018,11,22,06,49,1005.45
2018,11,22,06,50,1005.35
2018,11,22,06,51,1005.42
2018,11,22,06,52,1005.39
2018,11,22,06,53,1005.32
2018,11,22,06,54,1005.39
2018,11,22,06,55,1005.39
2018,11,22,06,56,1005.39
2018,11,22,06,57,1005.35
2018,11,22,06,58,1005.35
2018,11,22,06,59,1005.45
2018,11,22,07,00,1005.39
2018,11,22,07,01,1005.35
2018,11,22,07,02,1005.35
2018,11,22,07,03,1005.39
2018,11,22,07,04,1005.39
2018,11,22,07,05,1005.35
2018,11,22,07,06,1005.42
2018,11,22,07,07,1005.35
2018,11,22,07,08,1005.28
2018,11,22,07,09,1005.42
2018,11,22,07,10,1005.35
2018,11,22,07,11,1005.32
2018,11,22,07,12,1005.39
2018,11,22,07,13,1005.35
2018,11,22,07,14,1005.49
2018,11,22,07,15,1005.39
2018,11,22,07,16,1005.39
2018,11,22,07,17,1005.42
2018,11,22,07,18,1005.39
2018,11,22,07,19,1005.35
2018,11,22,07,20,1005.42
2018,11,22,07,21,1005.39
2018,11,22,07,22,1005.39
2018,11,22,07,23,1005.32
2018,11,22,07,24,1005.35
2018,11,22,07,25,1005.39
2018,11,22,07,26,1005.39
2018,11,22,07,27,1005.42
2018,11,22,07,28,1005.42
2018,11,22,07,29,1005.39
2018,11,22,07,30,1005.32
2018,11,22,07,31,1005.39
2018,11,22,07,32,1005.39
2018,11,22,07,33,1005.42
2018,11,22,07,34,1005.35
2018,11,22,07,35,1005.49
2018,11,22,07,36,1005.42
2018,11,22,07,37,1005.45
2018,11,22,07,38,1005.45
2018,11,22,07,39,1005.35
2018,11,22,07,40,1005.39
2018,11,22,07,41,1005.39
2018,11,22,07,42,1005.39
2018,11,22,07,43,1005.28
2018,11,22,07,44,1005.39
2018,11,22,07,45,1005.32
2018,11,22,07,46,1005.45
2018,11,22,07,47,1005.18
2018,11,22,07,48,1005.28
2018,11,22,07,49,1005.25
2018,11,22,07,50,1005.32
2018,11,22,07,51,1005.28
2018,11,22,07,52,1005.35
2018,11,22,07,53,1005.28
2018,11,22,07,54,1005.35
2018,11,22,07,55,1005.28
2018,11,22,07,56,1005.39
2018,11,22,07,57,1005.39
2018,11,22,07,58,1005.32
2018,11,22,07,59,1005.39
2018,11,22,08,00,1005.39
2018,11,22,08,01,1005.39
2018,11,22,08,02,1005.45
2018,11,22,08,03,1005.39
2018,11,22,08,04,1005.39
2018,11,22,08,05,1005.39
2018,11,22,08,06,1005.45
2018,11,22,08,07,1005.42
2018,11,22,08,08,1005.49
2018,11,22,08,09,1005.49
2018,11,22,08,10,1005.52
2018,11,22,08,11,1005.59
2018,11,22,08,12,1005.52
2018,11,22,08,13,1005.42
2018,11,22,08,14,1005.45
2018,11,22,08,15,1005.42
2018,11,22,08,16,1005.49
2018,11,22,08,17,1005.42
2018,11,22,08,18,1005.42
2018,11,22,08,19,1005.49
2018,11,22,08,20,1005.49
2018,11,22,08,21,1005.55
2018,11,22,08,22,1005.52
2018,11,22,08,23,1005.55
2018,11,22,08,24,1005.55
2018,11,22,08,25,1005.52
2018,11,22,08,26,1005.49
2018,11,22,08,27,1005.49
2018,11,22,08,28,1005.49
2018,11,22,08,29,1005.45
2018,11,22,08,30,1005.55
2018,11,22,08,31,1005.52
2018,11,22,08,32,1005.52
2018,11,22,08,33,1005.55
2018,11,22,08,34,1005.55
2018,11,22,08,35,1005.49
2018,11,22,08,36,1005.52
2018,11,22,08,37,1005.49
2018,11,22,08,38,1005.52
2018,11,22,08,39,1005.52
2018,11,22,08,40,1005.49
2018,11,22,08,41,1005.52
2018,11,22,08,42,1005.52
2018,11,22,08,43,1005.49
2018,11,22,08,44,1005.52
2018,11,22,08,45,1005.49
2018,11,22,08,46,1005.49
2018,11,22,08,47,1005.45
2018,11,22,08,48,1005.35
2018,11,22,08,49,1005.39
2018,11,22,08,50,1005.35
2018,11,22,08,51,1005.32
2018,11,22,08,52,1005.25
2018,11,22,08,53,1005.32
2018,11,22,08,54,1005.28
2018,11,22,08,55,1005.18
2018,11,22,08,56,1005.25
2018,11,22,08,57,1005.25
2018,11,22,08,58,1005.15
2018,11,22,08,59,1005.18
2018,11,22,09,00,1005.15
2018,11,22,09,01,1005.18
2018,11,22,09,02,1005.25
2018,11,22,09,03,1005.22
2018,11,22,09,04,1005.15
2018,11,22,09,05,1005.11
2018,11,22,09,06,1005.05
2018,11,22,09,07,1005.05
2018,11,22,09,08,1005.01
2018,11,22,09,09,1005.15
2018,11,22,09,10,1005.08
2018,11,22,09,11,1005.05
2018,11,22,09,12,1005.05
2018,11,22,09,13,1005.15
2018,11,22,09,14,1005.15
2018,11,22,09,15,1005.11
2018,11,22,09,16,1005.11
2018,11,22,09,17,1005.15
2018,11,22,09,18,1005.11
2018,11,22,09,19,1005.15
2018,11,22,09,20,1005.22
2018,11,22,09,21,1005.18
2018,11,22,09,22,1005.25
2018,11,22,09,23,1005.22
2018,11,22,09,24,1005.25
2018,11,22,09,25,1005.25
2018,11,22,09,26,1005.25
2018,11,22,09,27,1005.22
2018,11,22,09,28,1005.18
2018,11,22,09,29,1005.15
2018,11,22,09,30,1005.18
2018,11,22,09,31,1005.15
2018,11,22,09,32,1005.15
2018,11,22,09,33,1005.08
2018,11,22,09,34,1005.01
2018,11,22,09,35,1004.95
2018,11,22,09,36,1004.98
2018,11,22,09,37,1004.91
2018,11,22,09,38,1004.88
2018,11,22,09,39,1004.81
2018,11,22,09,40,1004.78
2018,11,22,09,41,1004.78
2018,11,22,09,42,1004.74
2018,11,22,09,43,1004.67
2018,11,22,09,44,1004.67
2018,11,22,09,45,1004.57
2018,11,22,09,46,1004.54
2018,11,22,09,47,1004.37
2018,11,22,09,48,1004.40
2018,11,22,09,49,1004.47
2018,11,22,09,50,1004.50
2018,11,22,09,51,1004.44
2018,11,22,09,52,1004.50
2018,11,22,09,53,1004.44
2018,11,22,09,54,1004.40
2018,11,22,09,55,1004.30
2018,11,22,09,56,1004.44
2018,11,22,09,57,1004.37
2018,11,22,09,58,1004.40
2018,11,22,09,59,1004.44
2018,11,22,10,00,1004.37
2018,11,22,10,01,1004.44
2018,11,22,10,02,1004.44
2018,11,22,10,03,1004.40
2018,11,22,10,04,1004.47
2018,11,22,10,05,1004.57
2018,11,22,10,06,1004.47
2018,11,22,10,07,1004.54
2018,11,22,10,08,1004.54
2018,11,22,10,09,1004.57
2018,11,22,10,10,1004.54
2018,11,22,10,11,1004.54
2018,11,22,10,12,1004.50
2018,11,22,10,13,1004.54
2018,11,22,10,14,1004.61
2018,11,22,10,15,1004.57
2018,11,22,10,16,1004.64
2018,11,22,10,17,1004.50
2018,11,22,10,18,1004.44
2018,11,22,10,19,1004.40
2018,11,22,10,20,1004.40
2018,11,22,10,21,1004.40
2018,11,22,10,22,1004.34
2018,11,22,10,23,1004.34
2018,11,22,10,24,1004.17
2018,11,22,10,25,1004.17
2018,11,22,10,26,1004.10
2018,11,22,10,27,1004.20
2018,11,22,10,28,1004.03
2018,11,22,10,29,1004.10
2018,11,22,10,30,1004.17
2018,11,22,10,31,1004.17
2018,11,22,10,32,1004.17
2018,11,22,10,33,1004.23
2018,11,22,10,34,1004.17
2018,11,22,10,35,1004.17
2018,11,22,10,36,1004.20
2018,11,22,10,37,1004.17
2018,11,22,10,38,1004.27
2018,11,22,10,39,1004.23
2018,11,22,10,40,1004.23
2018,11,22,10,41,1004.27
2018,11,22,10,42,1004.23
2018,11,22,10,43,1004.27
2018,11,22,10,44,1004.30
2018,11,22,10,45,1004.37
2018,11,22,10,46,1004.34
2018,11,22,10,47,1004.34
2018,11,22,10,48,1004.37
2018,11,22,10,49,1004.27
2018,11,22,10,50,1004.27
2018,11,22,10,51,1004.20
2018,11,22,10,52,1004.17
2018,11,22,10,53,1004.06
2018,11,22,10,54,1004.17
2018,11,22,10,55,1003.93
2018,11,22,10,56,1003.86
2018,11,22,10,57,1003.86
2018,11,22,10,58,1003.90
2018,11,22,10,59,1003.86
2018,11,22,11,00,1003.79
2018,11,22,11,01,1003.79
2018,11,22,11,02,1003.73
2018,11,22,11,03,1003.76
2018,11,22,11,04,1003.76
2018,11,22,11,05,1003.73
2018,11,22,11,06,1003.73
2018,11,22,11,07,1003.69
2018,11,22,11,08,1003.69
2018,11,22,11,09,1003.66
2018,11,22,11,10,1003.59
2018,11,22,11,11,1003.52
2018,11,22,11,12,1003.49
2018,11,22,11,13,1003.42
2018,11,22,11,14,1003.46
2018,11,22,11,15,1003.42
2018,11,22,11,16,1003.46
2018,11,22,11,17,1003.32
2018,11,22,11,18,1003.32
2018,11,22,11,19,1003.25
2018,11,22,11,20,1003.25
2018,11,22,11,21,1003.22
2018,11,22,11,22,1003.18
2018,11,22,11,23,1003.22
2018,11,22,11,24,1003.22
2018,11,22,11,25,1003.12
2018,11,22,11,26,1003.08
2018,11,22,11,27,1003.15
2018,11,22,11,28,1003.05
2018,11,22,11,29,1003.01
2018,11,22,11,30,1003.01
2018,11,22,11,31,1002.91
2018,11,22,11,32,1002.91
2018,11,22,11,33,1002.91
2018,11,22,11,34,1002.88
2018,11,22,11,35,1002.88
2018,11,22,11,36,1002.88
2018,11,22,11,37,1002.85
2018,11,22,11,38,1002.81
2018,11,22,11,39,1002.91
2018,11,22,11,40,1002.88
2018,11,22,11,41,1002.74
2018,11,22,11,42,1002.71
2018,11,22,11,43,1002.84
2018,11,22,11,44,1002.81
2018,11,22,11,45,1002.81
2018,11,22,11,46,1002.71
2018,11,22,11,47,1002.78
2018,11,22,11,48,1002.74
2018,11,22,11,49,1002.64
2018,11,22,11,50,1002.74
2018,11,22,11,51,1002.68
2018,11,22,11,52,1002.64
2018,11,22,11,53,1002.57
2018,11,22,11,54,1002.54
2018,11,22,11,55,1002.51
2018,11,22,11,56,1002.51
2018,11,22,11,57,1002.47
2018,11,22,11,58,1002.51
2018,11,22,11,59,1002.38
2018,11,22,12,00,1002.41
2018,11,22,12,01,1002.37
2018,11,22,12,02,1002.34
2018,11,22,12,03,1002.27
2018,11,22,12,04,1002.34
2018,11,22,12,05,1002.34
2018,11,22,12,06,1002.27
2018,11,22,12,07,1002.24
2018,11,22,12,08,1002.24
2018,11,22,12,09,1002.27
2018,11,22,12,10,1002.17
2018,11,22,12,11,1002.20
2018,11,22,12,12,1002.10
2018,11,22,12,13,1002.07
2018,11,22,12,14,1002.13
2018,11,22,12,15,1002.17
2018,11,22,12,16,1002.10
2018,11,22,12,17,1002.07
2018,11,22,12,18,1001.97
2018,11,22,12,19,1002.00
2018,11,22,12,20,1001.93
2018,11,22,12,21,1001.93
2018,11,22,12,22,1001.93
2018,11,22,12,23,1001.90
2018,11,22,12,24,1001.76
2018,11,22,12,25,1001.80
2018,11,22,12,26,1001.83
2018,11,22,12,27,1001.73
2018,11,22,12,28,1001.66
2018,11,22,12,29,1001.63
2018,11,22,12,30,1001.59
2018,11,22,12,31,1001.56
2018,11,22,12,32,1001.46
2018,11,22,12,33,1001.46
2018,11,22,12,34,1001.42
2018,11,22,12,35,1001.39
2018,11,22,12,36,1001.49
2018,11,22,12,37,1001.39
2018,11,22,12,38,1001.36
2018,11,22,12,39,1001.25
2018,11,22,12,40,1001.25
2018,11,22,12,41,1001.45
2018,11,22,12,42,1001.29
2018,11,22,12,43,1001.36
2018,11,22,12,44,1001.49
2018,11,22,12,45,1001.33
2018,11,22,12,46,1001.39
2018,11,22,12,47,1001.32
2018,11,22,12,48,1001.29
2018,11,22,12,49,1001.25
2018,11,22,12,50,1001.22
2018,11,22,12,51,1001.09
2018,11,22,12,52,1001.05
2018,11,22,12,53,1000.92
2018,11,22,12,54,1000.88
2018,11,22,12,55,1000.85
2018,11,22,12,56,1000.81
2018,11,22,12,57,1000.78
2018,11,22,12,58,1000.75
2018,11,22,12,59,1000.75
2018,11,22,13,00,1000.68
2018,11,22,13,01,1000.64
2018,11,22,13,02,1000.75
2018,11,22,13,03,1000.61
2018,11,22,13,04,1000.51
2018,11,22,13,05,1000.58
2018,11,22,13,06,1000.51
2018,11,22,13,07,1000.41
2018,11,22,13,08,1000.48
2018,11,22,13,09,1000.48
2018,11,22,13,10,1000.41
2018,11,22,13,11,1000.37
2018,11,22,13,12,1000.41
2018,11,22,13,13,1000.41
2018,11,22,13,14,1000.37
2018,11,22,13,15,1000.37
2018,11,22,13,16,1000.31
2018,11,22,13,17,1000.34
2018,11,22,13,18,1000.37
2018,11,22,13,19,1000.41
2018,11,22,13,20,1000.37
2018,11,22,13,21,1000.37
2018,11,22,13,22,1000.41
2018,11,22,13,23,1000.31
2018,11,22,13,24,1000.37
2018,11,22,13,25,1000.31
2018,11,22,13,26,1000.37
2018,11,22,13,27,1000.37
2018,11,22,13,28,1000.34
2018,11,22,13,29,1000.31
2018,11,22,13,30,1000.24
2018,11,22,13,31,1000.31
2018,11,22,13,32,1000.41
2018,11,22,13,33,1000.44
2018,11,22,13,34,1000.31
2018,11,22,13,35,1000.34
2018,11,22,13,36,1000.34
2018,11,22,13,37,1000.37
2018,11,22,13,38,1000.34
2018,11,22,13,39,1000.31
2018,11,22,13,40,1000.34
2018,11,22,13,41,1000.31
2018,11,22,13,42,1000.31
2018,11,22,13,43,1000.37
2018,11,22,13,44,1000.27
2018,11,22,13,45,1000.34
2018,11,22,13,46,1000.24
2018,11,22,13,47,1000.37
2018,11,22,13,48,1000.31
2018,11,22,13,49,1000.34
2018,11,22,13,50,1000.24
2018,11,22,13,51,1000.24
2018,11,22,13,52,1000.24
2018,11,22,13,53,1000.17
2018,11,22,13,54,1000.24
2018,11,22,13,55,1000.24
2018,11,22,13,56,1000.17
2018,11,22,13,57,1000.07
2018,11,22,13,58,1000.14
2018,11,22,13,59,1000.14
2018,11,22,14,00,1000.14
2018,11,22,14,01,1000.10
2018,11,22,14,02,1000.17
2018,11,22,14,03,1000.07
2018,11,22,14,04,1000.14
2018,11,22,14,05,1000.10
2018,11,22,14,06,1000.17
2018,11,22,14,07,1000.03
2018,11,22,14,08,1000.14
2018,11,22,14,09,1000.07
2018,11,22,14,10,1000.07
2018,11,22,14,11,1000.07
2018,11,22,14,12,1000.00
2018,11,22,14,13,1000.03
2018,11,22,14,14,1000.03
2018,11,22,14,15,999.93
2018,11,22,14,16,999.97
2018,11,22,14,17,999.97
2018,11,22,14,18,999.97
2018,11,22,14,19,999.93
2018,11,22,14,20,1000.00
2018,11,22,14,21,1000.03
2018,11,22,14,22,999.97
2018,11,22,14,23,999.90
2018,11,22,14,24,999.97
2018,11,22,14,25,999.90
2018,11,22,14,26,999.97
2018,11,22,14,27,999.93
2018,11,22,14,28,999.90
2018,11,22,14,29,999.93
2018,11,22,14,30,999.93
2018,11,22,14,31,999.93
2018,11,22,14,32,999.97
2018,11,22,14,33,999.87
2018,11,22,14,34,999.97
2018,11,22,14,35,999.97
2018,11,22,14,36,1000.00
2018,11,22,14,37,999.97
2018,11,22,14,38,999.97
2018,11,22,14,39,999.97
2018,11,22,14,40,999.90
2018,11,22,14,41,999.87
2018,11,22,14,42,1000.00
2018,11,22,14,43,999.93
2018,11,22,14,44,999.93
2018,11,22,14,45,999.97
2018,11,22,14,46,999.90
2018,11,22,14,47,999.93
2018,11,22,14,48,999.97
2018,11,22,14,49,1000.00
2018,11,22,14,50,999.93
2018,11,22,14,51,999.90
2018,11,22,14,52,999.93
2018,11,22,14,53,999.97
2018,11,22,14,54,999.93
2018,11,22,14,55,999.87
2018,11,22,14,56,999.93
2018,11,22,14,57,999.87
2018,11,22,14,58,999.90
2018,11,22,14,59,999.90
2018,11,22,15,00,999.90
2018,11,22,15,01,999.87
2018,11,22,15,02,999.97
2018,11,22,15,03,999.93
2018,11,22,15,04,999.90
2018,11,22,15,05,999.90
2018,11,22,15,06,999.90
2018,11,22,15,07,999.90
2018,11,22,15,08,1000.00
2018,11,22,15,09,999.93
2018,11,22,15,10,999.90
2018,11,22,15,11,999.93
2018,11,22,15,12,999.90
2018,11,22,15,13,1000.03
2018,11,22,15,14,1000.03
2018,11,22,15,15,999.97
2018,11,22,15,16,999.87
2018,11,22,15,17,999.87
2018,11,22,15,18,1000.03
2018,11,22,15,19,1000.03
2018,11,22,15,20,1000.00
2018,11,22,15,21,1000.00
2018,11,22,15,22,1000.03
2018,11,22,15,23,1000.00
2018,11,22,15,24,1000.07
2018,11,22,15,25,1000.07
2018,11,22,15,26,1000.03
2018,11,22,15,27,1000.10
2018,11,22,15,28,1000.10
2018,11,22,15,29,1000.14
2018,11,22,15,30,1000.20
2018,11,22,15,31,1000.17
2018,11,22,15,32,1000.20
2018,11,22,15,33,1000.20
2018,11,22,15,34,1000.24
2018,11,22,15,35,1000.24
2018,11,22,15,36,1000.27
2018,11,22,15,37,1000.24
2018,11,22,15,38,1000.27
2018,11,22,15,39,1000.31
2018,11,22,15,40,1000.31
2018,11,22,15,41,1000.27
2018,11,22,15,42,1000.27
2018,11,22,15,43,1000.34
2018,11,22,15,44,1000.34
2018,11,22,15,45,1000.44
2018,11,22,15,46,1000.41
2018,11,22,15,47,1000.48
2018,11,22,15,48,1000.37
2018,11,22,15,49,1000.37
2018,11,22,15,50,1000.48
2018,11,22,15,51,1000.48
2018,11,22,15,52,1000.48
2018,11,22,15,53,1000.48
2018,11,22,15,54,1000.51
2018,11,22,15,55,1000.54
2018,11,22,15,56,1000.64
2018,11,22,15,57,1000.61
2018,11,22,15,58,1000.61